Aviation Digital Data Service (ADDS)

Output produced by METARs form (1807 UTC 19 October 2017)
found at http://www.aviationweather.gov/adds/metars/
 
LECO 191800Z 24005KT 220V300 3000 -RA BR SCT005 BKN018 16/15 Q1012 TEMPO 6000 NSW
TAF LECO 191400Z 1915/2015 21009KT 9999 SCT018 SCT040 TX23/2015Z TN13/2005Z 
     TEMPO 1915/1921 4000 RA BKN014 
     PROB40 
     TEMPO 1915/1918 21017G30KT 
     PROB40 
     TEMPO 1918/1924 28010KT 3000 BR BKN010 
     TEMPO 2008/2015 21017G30KT
       
LEAB 191800Z 30009KT CAVOK 13/05 Q1015 NOSIG
TAF LEAB 191700Z 1918/2003 30008KT 9999 FEW040 
     TEMPO 1918/1919 31015G25KT 
     PROB30 
     TEMPO 2002/2003 BKN012
       
LERI 191700Z 32007KT 290V350 9999 FEW060 21/07 Q1011 NOSIG
TAF LERI 191400Z 1915/1924 31008KT 9999 SCT040 
     PROB40 
     TEMPO 1915/1918 32010G20KT
       
LEAL 191800Z 30006KT 9999 FEW015 20/08 Q1012 NOSIG
TAF LEAL 191700Z 1918/2018 30010KT 9999 SCT025 TX26/2012Z TN14/2006Z 
     TEMPO 1918/2010 31015G25KT 
     BECMG 2012/2014 12010KT
       
LEAM 191800Z 36002KT CAVOK 20/16 Q1012
TAF LEAM 191400Z 1915/2015 22010KT 9999 FEW040 TX23/2011Z TN15/2006Z 
     BECMG 1917/1920 34010KT 
     TEMPO 2004/2010 VRB02KT 
     BECMG 2009/2011 20006KT
       
LEGA 191700Z 34009KT 9999 FEW060 16/07 Q1016
TAF LEGA 191400Z 1915/1924 33006KT 9999 SCT020 SCT040
       
LEAS 191800Z 25008KT 210V270 9999 SCT045 SCT070 18/14 Q1010 NOSIG
TAF LEAS 191400Z 1915/2015 23009KT 9999 SCT035 TX25/2014Z TN14/2006Z 
     TEMPO 1915/1918 4000 RA SHRA SCT025TCU 
     PROB40 
     TEMPO 1918/2006 29010KT 3000 -RA BR BKN014
       
LEMD 191800Z 26006KT 220V280 CAVOK 17/06 Q1014 NOSIG
TAF LEMD 191700Z 1918/2024 VRB05KT CAVOK TX22/2016Z TN08/2007Z 
     PROB40 
     TEMPO 2002/2010 3500 BR BKN008 
     PROB30 
     TEMPO 2003/2009 1500 BCFG BKN006
       
LEBL 191800Z 08010KT 9999 FEW012 18/16 Q1008 NOSIG
TAF LEBL 191700Z 1918/2018 34010KT 9999 SCT018 BKN030 TX25/2012Z TN17/2006Z 
     PROB30 
     TEMPO 1918/2005 4000 SHRA BKN018 SCT020TCU 
     BECMG 2000/2002 04010KT
       
LEBB 191800Z 11003KT CAVOK 17/13 Q1011 NOSIG
TAF LEBB 191700Z 1918/2018 18007KT 9999 FEW050 TX25/2014Z TN14/2007Z 
     PROB30 
     TEMPO 2012/2016 04010KT
       
LEBG 191800Z 20008KT 9999 FEW033 11/06 Q1014
TAF LEBG 191700Z 1918/2003 21007KT 9999 FEW030 
     PROB40 
     TEMPO 2000/2003 BKN008
       
LEBA 191800Z 28002KT CAVOK 19/13 Q1015
TAF LEBA 191700Z 1918/2003 26004KT 9999 FEW030
       
LEVS 191800Z 23006KT CAVOK 15/09 Q1015
TAF LEVS 191700Z 1918/2003 25006KT 9999 FEW045 
     PROB40 
     TEMPO 2002/2003 3500 BR BKN008
       
GCFV 191800Z 36012KT 330V030 9999 FEW040 26/17 Q1020
TAF GCFV 191400Z 1915/2015 05009KT 9999 FEW035 TX26/2011Z TN20/2006Z
       
LEGT 191700Z 24010KT 9999 FEW045 16/08 Q1014
TAF LEGT 191700Z 1918/2003 25006KT 9999 FEW045
       
LEGE 191800Z 05007KT 010V080 9999 -RA SCT030TCU SCT080 16/16 Q1010
TAF LEGE 191700Z 1918/2018 36008KT 9999 BKN020 TX25/2012Z TN15/2006Z 
     PROB30 
     TEMPO 1918/2006 4000 SHRA BKN015 SCT020TCU 
     PROB30 
     TEMPO 1918/2006 VRB03KT 2000 BR BKN010 
     TEMPO 2010/2018 VRB03KT
       
GCLP 191800Z 02016KT 9999 FEW022 24/19 Q1020 NOSIG
TAF GCLP 191400Z 1915/2015 02020KT 9999 SCT035 TX26/2013Z TN21/2006Z
       
LEGR 191800Z VRB02KT 9999 FEW045 16/10 Q1017
TAF LEGR 191400Z 1915/2015 28006KT 9999 FEW020 SCT040 TX24/2015Z TN10/2006Z 
     PROB30 
     TEMPO 2003/2009 4000 BR
       
GCHI 191800Z AUTO 36012KT 330V030 9999 FEW018/// 24/19 Q1021
TAF GCHI 191400Z 1915/2015 36014KT 9999 FEW025 TX26/2013Z TN22/2006Z
       
LEIB 191800Z VRB02KT 9999 FEW030 18/12 Q1010 NOSIG
TAF LEIB 191400Z 1915/2015 29008KT 9999 SCT020 TX24/2012Z TN17/2006Z 
     TEMPO 1915/1924 4000 SHRA BKN018 SCT020TCU 
     PROB40 
     TEMPO 1915/1918 2000 TSRA BKN014 SCT020CB 
     BECMG 1920/1923 30015KT
       
LEAB 191800Z 30009KT CAVOK 13/05 Q1015 NOSIG
TAF LEAB 191700Z 1918/2003 30008KT 9999 FEW040 
     TEMPO 1918/1919 31015G25KT 
     PROB30 
     TEMPO 2002/2003 BKN012
       
LEAL 191800Z 30006KT 9999 FEW015 20/08 Q1012 NOSIG
TAF LEAL 191700Z 1918/2018 30010KT 9999 SCT025 TX26/2012Z TN14/2006Z 
     TEMPO 1918/2010 31015G25KT 
     BECMG 2012/2014 12010KT
       
LEAM 191800Z 36002KT CAVOK 20/16 Q1012
TAF LEAM 191400Z 1915/2015 22010KT 9999 FEW040 TX23/2011Z TN15/2006Z 
     BECMG 1917/1920 34010KT 
     TEMPO 2004/2010 VRB02KT 
     BECMG 2009/2011 20006KT
       
LEAO 191800Z 29006KT 260V320 9999 FEW045 14/07 Q////
TAF LEAO 191700Z 1918/2003 28008KT 9999 FEW040 
     PROB30 
     TEMPO 2002/2003 BKN012
       
LEAS 191800Z 25008KT 210V270 9999 SCT045 SCT070 18/14 Q1010 NOSIG
TAF LEAS 191400Z 1915/2015 23009KT 9999 SCT035 TX25/2014Z TN14/2006Z 
     TEMPO 1915/1918 4000 RA SHRA SCT025TCU 
     PROB40 
     TEMPO 1918/2006 29010KT 3000 -RA BR BKN014
       
LEBA 191800Z 28002KT CAVOK 19/13 Q1015
TAF LEBA 191700Z 1918/2003 26004KT 9999 FEW030
       
LEBB 191800Z 11003KT CAVOK 17/13 Q1011 NOSIG
TAF LEBB 191700Z 1918/2018 18007KT 9999 FEW050 TX25/2014Z TN14/2007Z 
     PROB30 
     TEMPO 2012/2016 04010KT
       
LEBG 191800Z 20008KT 9999 FEW033 11/06 Q1014
TAF LEBG 191700Z 1918/2003 21007KT 9999 FEW030 
     PROB40 
     TEMPO 2000/2003 BKN008
       
LEBL 191800Z 08010KT 9999 FEW012 18/16 Q1008 NOSIG
TAF LEBL 191700Z 1918/2018 34010KT 9999 SCT018 BKN030 TX25/2012Z TN17/2006Z 
     PROB30 
     TEMPO 1918/2005 4000 SHRA BKN018 SCT020TCU 
     BECMG 2000/2002 04010KT
       
LEBR 191800Z AUTO 27006KT 9999 NCD 15/10 Q1012
LEBT 191800Z AUTO VRB02KT CAVOK 16/12 Q1011
LEBZ 191800Z 27010KT 9999 BKN037 20/14 Q1017
TAF LEBZ 191700Z 1918/2018 27006KT 9999 SCT010 SCT020 TX24/2015Z TN14/2006Z 
     TEMPO 2002/2011 4000 BR BKN008 
     PROB30 
     TEMPO 2003/2010 0300 FG VV002
       
LECH 191800Z AUTO 22002KT CAVOK 16/11 Q1011
LECO 191800Z 24005KT 220V300 3000 -RA BR SCT005 BKN018 16/15 Q1012 TEMPO 6000 NSW
TAF LECO 191400Z 1915/2015 21009KT 9999 SCT018 SCT040 TX23/2015Z TN13/2005Z 
     TEMPO 1915/1921 4000 RA BKN014 
     PROB40 
     TEMPO 1915/1918 21017G30KT 
     PROB40 
     TEMPO 1918/1924 28010KT 3000 BR BKN010 
     TEMPO 2008/2015 21017G30KT
       
LECV 191800Z VRB01KT 9999 FEW030 12/07 Q1015
TAF LECV 191700Z 1918/2003 VRB03KT 9999 FEW030
       
LEEC 191800Z 27003KT CAVOK 22/13 Q1016
TAF LEEC 191700Z 1918/2003 26006KT 9999 FEW035
       
LEGA 191700Z 34009KT 9999 FEW060 16/07 Q1016
TAF LEGA 191400Z 1915/1924 33006KT 9999 SCT020 SCT040
       
LEGE 191800Z 05007KT 010V080 9999 -RA SCT030TCU SCT080 16/16 Q1010
TAF LEGE 191700Z 1918/2018 36008KT 9999 BKN020 TX25/2012Z TN15/2006Z 
     PROB30 
     TEMPO 1918/2006 4000 SHRA BKN015 SCT020TCU 
     PROB30 
     TEMPO 1918/2006 VRB03KT 2000 BR BKN010 
     TEMPO 2010/2018 VRB03KT
       
LEGR 191800Z VRB02KT 9999 FEW045 16/10 Q1017
TAF LEGR 191400Z 1915/2015 28006KT 9999 FEW020 SCT040 TX24/2015Z TN10/2006Z 
     PROB30 
     TEMPO 2003/2009 4000 BR
       
LEGT 191700Z 24010KT 9999 FEW045 16/08 Q1014
TAF LEGT 191700Z 1918/2003 25006KT 9999 FEW045
       
LEHC 191800Z AUTO 27008KT CAVOK 14/11 Q1012
TAF LEHC 190800Z 1909/2009 VRB03KT 9999 SCT012 TX17/1913Z TN10/2006Z 
     PROB30 
     TEMPO 1909/1910 0800 FG VV002 
     BECMG 1909/1910 27006KT
       
LEIB 191800Z VRB02KT 9999 FEW030 18/12 Q1010 NOSIG
TAF LEIB 191400Z 1915/2015 29008KT 9999 SCT020 TX24/2012Z TN17/2006Z 
     TEMPO 1915/1924 4000 SHRA BKN018 SCT020TCU 
     PROB40 
     TEMPO 1915/1918 2000 TSRA BKN014 SCT020CB 
     BECMG 1920/1923 30015KT
       
LEJR 191800Z 26007KT 220V300 9999 FEW055 21/16 Q1017
TAF LEJR 191700Z 1918/2018 27006KT 9999 FEW020 TX25/2015Z TN14/2006Z 
     TEMPO 2003/2010 4000 BR 
     PROB40 
     TEMPO 2004/2009 0300 FG VV002
       
LELC 191800Z 22005KT 190V260 9999 FEW038 20/12 Q1012 NOSIG
TAF LELC 191700Z 1918/2018 28008KT 9999 FEW040 TX26/2014Z TN15/2005Z 
     PROB40 
     TEMPO 2004/2010 30015G25KT 
     PROB40 
     TEMPO 2014/2018 17010KT
       
LELL 191800Z AUTO 04009KT 320V100 9999 -SHRA BKN020/// OVC025/// ///TCU 17/16 Q1009
TAF LELL 191400Z 1915/2015 VRB04KT 9999 BKN025 TX25/2013Z TN14/2006Z 
     TEMPO 1915/1924 4000 SHRA BKN018 SCT020TCU 
     PROB40 
     TEMPO 1915/1916 3000 TSRA BKN020 SCT025CB
       
LELN 191800Z VRB02KT 9999 SCT020 BKN030 11/09 Q1015
TAF LELN 191700Z 1918/2003 VRB05KT 9999 BKN020 
     PROB30 
     TEMPO 1918/1923 RA BKN012 
     BECMG 1921/1923 BKN008 
     PROB40 
     TEMPO 2001/2003 0400 FG OVC003
       
LELO 191800Z 00000KT CAVOK 13/10 Q1013
TAF LELO 191700Z 1918/2003 29004KT 9999 FEW040
       
LEMD 191800Z 26006KT 220V280 CAVOK 17/06 Q1014 NOSIG
TAF LEMD 191700Z 1918/2024 VRB05KT CAVOK TX22/2016Z TN08/2007Z 
     PROB40 
     TEMPO 2002/2010 3500 BR BKN008 
     PROB30 
     TEMPO 2003/2009 1500 BCFG BKN006
       
LEMG 191800Z 30003KT 260V330 9999 FEW040 19/13 Q1015 NOSIG
TAF LEMG 191700Z 1918/2018 29008KT 9999 FEW030 TX27/2015Z TN16/2003Z 
     PROB40 
     TEMPO 2004/2012 30015G25KT
       
LEMH 191800Z 22003KT 9999 -RA FEW020 FEW045TCU 16/13 Q1011
TAF LEMH 191400Z 1915/2015 20012KT 9999 SCT014 TX24/2012Z TN16/2006Z 
     TEMPO 1915/2005 4000 SHRA BKN018 SCT020TCU 
     TEMPO 1915/1922 18015G25KT 2000 TSRA BKN014 SCT016CB 
     BECMG 1920/1922 VRB04KT
       
LEMO 191800Z 24005KT CAVOK 20/16 Q1016 NOSIG
TAF LEMO 191700Z 1918/2003 23006KT 9999 FEW030
       
LEPA 191800Z 01003KT 320V070 9999 FEW022 16/13 Q1010 NOSIG
TAF LEPA 191700Z 1918/2018 VRB04KT 9999 SCT020 TX25/2012Z TN12/2006Z 
     PROB40 
     TEMPO 1918/2005 4000 SHRA BKN018 FEW020TCU 
     PROB30 
     TEMPO 1918/1920 2000 TSRA BKN020 SCT025CB
       
LEPP 191800Z 00000KT CAVOK 14/09 Q1013
TAF LEPP 191400Z 1915/2015 VRB04KT 9999 SCT040 TX23/2014Z TN09/2005Z
       
LERI 191700Z 32007KT 290V350 9999 FEW060 21/07 Q1011 NOSIG
TAF LERI 191400Z 1915/1924 31008KT 9999 SCT040 
     PROB40 
     TEMPO 1915/1918 32010G20KT
       
LERS 191800Z 22004KT 180V240 9999 -RA FEW030 BKN040 15/14 Q1008
TAF LERS 191400Z 1915/2015 33006KT 9999 SCT025 TX24/2013Z TN15/2006Z 
     PROB40 
     TEMPO 1915/1918 4000 SHRA BKN018 SCT025TCU 
     PROB30 
     TEMPO 1915/1916 2000 TSRA BKN018 SCT025CB
       
LERT 191700Z 28010KT 240V320 9999 FEW020 21/16 Q1016 NOSIG
TAF LERT 191700Z 1918/2003 29008KT 9999 FEW020
       
LESA 191800Z 28009KT 250V310 9999 FEW025 BKN035 14/08 Q1016
TAF LESA 191700Z 1918/2018 24006KT 9999 BKN035 TX18/2014Z TN09/2006Z 
     PROB40 
     TEMPO 1918/1924 BKN012 
     TEMPO 2000/2009 3000 BR BKN010 
     PROB40 
     TEMPO 2004/2008 0400 FG OVC003
       
LESO 191800Z VRB02KT CAVOK 17/14 Q1012
TAF LESO 191700Z 1918/2018 15007KT 9999 FEW050 TX24/2014Z TN16/2006Z 
     PROB40 
     TEMPO 2012/2018 04010KT
       
LEST 191800Z 24006KT 190V280 3000 BR FEW002 BKN004 OVC010 14/14 Q1013 TEMPO 1500 BCFG
TAF LEST 191700Z 1918/2018 22009KT 6000 SCT005 BKN016 TX20/2014Z TN10/2006Z 
     TEMPO 1918/2018 3000 BR BKN005 BKN010 
     TEMPO 1918/2018 0800 -RADZ BCFG BKN002 
     PROB40 
     TEMPO 1918/2008 0350 FG VV001 
     PROB40 
     TEMPO 2011/2018 21015G25KT
       
LESU 191630Z 07004KT 030V090 9999 SCT050 BKN070 14/10 Q1011
TAF LESU 191400Z 1915/2015 VRB03KT 9999 SCT050 TX22/2013Z TN04/2006Z 
     PROB40 
     TEMPO 1915/1918 3000 SHRA BKN020 SCT040CB
       
LETL 191800Z AUTO 33010KT CAVOK 11/05 Q1014
LETO 191800Z 01001KT CAVOK 15/10 Q1014 NOSIG
TAF LETO 191700Z 1918/2018 VRB05KT CAVOK TX22/2016Z TN08/2007Z 
     PROB40 
     TEMPO 2002/2010 3500 BR BKN008 
     PROB30 
     TEMPO 2003/2009 1500 BCFG BKN006
       
LEVC 191800Z 32003KT 300V010 9999 SCT030 17/14 Q1011 NOSIG
TAF LEVC 191700Z 1918/2018 29005KT 9999 SCT030 TX26/2012Z TN13/2006Z
       
LEVD 191800Z 26012KT 9999 SCT034 BKN041 12/07 Q1015
TAF LEVD 191700Z 1918/2018 25006KT 9999 BKN035 TX19/2014Z TN08/2006Z 
     TEMPO 2000/2009 3000 BR BKN010 
     PROB40 
     TEMPO 2004/2008 0400 FG OVC003
       
LEVS 191800Z 23006KT CAVOK 15/09 Q1015
TAF LEVS 191700Z 1918/2003 25006KT 9999 FEW045 
     PROB40 
     TEMPO 2002/2003 3500 BR BKN008
       
LEVT 191800Z VRB01KT 9999 FEW070 12/08 Q1013
TAF LEVT 191700Z 1918/2018 22009KT 9999 FEW050 TX22/2014Z TN10/2006Z 
     TEMPO 2009/2014 23015G25KT
       
LEVX 191800Z 18008KT 120V250 0200 R19/1000U R01/0325N FG VV001 14/14 Q1013 RERA NOSIG
TAF LEVX 191700Z 1918/2018 18009KT 3000 BR SCT002 BKN010 TX20/2013Z TN12/2006Z 
     TEMPO 1918/2018 0800 RADZ BKN002 BKN005 
     PROB40 
     TEMPO 1918/2009 0350 FG VV001 
     TEMPO 2014/2018 20015G25KT
       
LEXJ 191800Z VRB02KT 9999 BKN069 18/14 Q1010
TAF LEXJ 191400Z 1915/2015 VRB04KT 9999 FEW040 TX23/2014Z TN14/2006Z 
     TEMPO 1915/1918 04010KT 
     PROB30 
     TEMPO 1921/1924 28010KT RADZ
       
LEZG 191800Z 25006KT 9999 FEW040 16/10 Q1012
TAF LEZG 191700Z 1918/2018 27008KT 9999 SCT060 TX23/2012Z TN10/2006Z 
     TEMPO 2011/2018 VRB04KT
       
LEZL 191800Z 29008KT 9999 FEW048 22/14 Q1016 NOSIG
TAF LEZL 191400Z 1915/2015 25006KT 9999 FEW030 TX25/2015Z TN14/2006Z 
     TEMPO 2002/2010 4000 BR 
     PROB40 
     TEMPO 2003/2009 0200 FG VV002
       
LEJR 191800Z 26007KT 220V300 9999 FEW055 21/16 Q1017
TAF LEJR 191700Z 1918/2018 27006KT 9999 FEW020 TX25/2015Z TN14/2006Z 
     TEMPO 2003/2010 4000 BR 
     PROB40 
     TEMPO 2004/2009 0300 FG VV002
       
GCGM 191800Z AUTO 22003KT 190V250 9999 FEW032/// SCT039/// 23/18 Q1021 RMK R09/VRB01KT ARP/VRB02KT
GCLA 191800Z 01008KT 330V050 9999 FEW025 SCT040 24/20 Q1021
TAF GCLA 191400Z 1915/2015 02009KT 9999 SCT030 TX25/2012Z TN20/2006Z
       
GCRR 191800Z 34008KT 290V020 9999 FEW035 SCT040 25/18 Q1020 WS R03
TAF GCRR 191400Z 1915/2015 36010KT 9999 SCT035 TX28/2011Z TN19/2006Z 
     TEMPO 1915/1917 20005KT
       
LELN 191800Z VRB02KT 9999 SCT020 BKN030 11/09 Q1015
TAF LELN 191700Z 1918/2003 VRB05KT 9999 BKN020 
     PROB30 
     TEMPO 1918/1923 RA BKN012 
     BECMG 1921/1923 BKN008 
     PROB40 
     TEMPO 2001/2003 0400 FG OVC003
       
LEMG 191800Z 30003KT 260V330 9999 FEW040 19/13 Q1015 NOSIG
TAF LEMG 191700Z 1918/2018 29008KT 9999 FEW030 TX27/2015Z TN16/2003Z 
     PROB40 
     TEMPO 2004/2012 30015G25KT
       
GEML 191800Z 26011KT 220V320 8000 FEW025 21/16 Q1015
TAF GEML 191400Z 1915/2015 28010KT 9999 FEW015 SCT025 TX24/2014Z TN18/2006Z 
     TEMPO 1916/2002 28015G25KT 
     PROB40 
     TEMPO 1919/2009 BKN014
       
LEMH 191800Z 22003KT 9999 -RA FEW020 FEW045TCU 16/13 Q1011
TAF LEMH 191400Z 1915/2015 20012KT 9999 SCT014 TX24/2012Z TN16/2006Z 
     TEMPO 1915/2005 4000 SHRA BKN018 SCT020TCU 
     TEMPO 1915/1922 18015G25KT 2000 TSRA BKN014 SCT016CB 
     BECMG 1920/1922 VRB04KT
       
LEAB 191800Z 30009KT CAVOK 13/05 Q1015 NOSIG
TAF LEAB 191700Z 1918/2003 30008KT 9999 FEW040 
     TEMPO 1918/1919 31015G25KT 
     PROB30 
     TEMPO 2002/2003 BKN012
       
LEAL 191800Z 30006KT 9999 FEW015 20/08 Q1012 NOSIG
TAF LEAL 191700Z 1918/2018 30010KT 9999 SCT025 TX26/2012Z TN14/2006Z 
     TEMPO 1918/2010 31015G25KT 
     BECMG 2012/2014 12010KT
       
LEAM 191800Z 36002KT CAVOK 20/16 Q1012
TAF LEAM 191400Z 1915/2015 22010KT 9999 FEW040 TX23/2011Z TN15/2006Z 
     BECMG 1917/1920 34010KT 
     TEMPO 2004/2010 VRB02KT 
     BECMG 2009/2011 20006KT
       
LEAO 191800Z 29006KT 260V320 9999 FEW045 14/07 Q////
TAF LEAO 191700Z 1918/2003 28008KT 9999 FEW040 
     PROB30 
     TEMPO 2002/2003 BKN012
       
LEAS 191800Z 25008KT 210V270 9999 SCT045 SCT070 18/14 Q1010 NOSIG
TAF LEAS 191400Z 1915/2015 23009KT 9999 SCT035 TX25/2014Z TN14/2006Z 
     TEMPO 1915/1918 4000 RA SHRA SCT025TCU 
     PROB40 
     TEMPO 1918/2006 29010KT 3000 -RA BR BKN014
       
LEBA 191800Z 28002KT CAVOK 19/13 Q1015
TAF LEBA 191700Z 1918/2003 26004KT 9999 FEW030
       
LEBB 191800Z 11003KT CAVOK 17/13 Q1011 NOSIG
TAF LEBB 191700Z 1918/2018 18007KT 9999 FEW050 TX25/2014Z TN14/2007Z 
     PROB30 
     TEMPO 2012/2016 04010KT
       
LEBG 191800Z 20008KT 9999 FEW033 11/06 Q1014
TAF LEBG 191700Z 1918/2003 21007KT 9999 FEW030 
     PROB40 
     TEMPO 2000/2003 BKN008
       
LEBL 191800Z 08010KT 9999 FEW012 18/16 Q1008 NOSIG
TAF LEBL 191700Z 1918/2018 34010KT 9999 SCT018 BKN030 TX25/2012Z TN17/2006Z 
     PROB30 
     TEMPO 1918/2005 4000 SHRA BKN018 SCT020TCU 
     BECMG 2000/2002 04010KT
       
LEBR 191800Z AUTO 27006KT 9999 NCD 15/10 Q1012
LEBT 191800Z AUTO VRB02KT CAVOK 16/12 Q1011
LEBZ 191800Z 27010KT 9999 BKN037 20/14 Q1017
TAF LEBZ 191700Z 1918/2018 27006KT 9999 SCT010 SCT020 TX24/2015Z TN14/2006Z 
     TEMPO 2002/2011 4000 BR BKN008 
     PROB30 
     TEMPO 2003/2010 0300 FG VV002
       
LECH 191800Z AUTO 22002KT CAVOK 16/11 Q1011
LECO 191800Z 24005KT 220V300 3000 -RA BR SCT005 BKN018 16/15 Q1012 TEMPO 6000 NSW
TAF LECO 191400Z 1915/2015 21009KT 9999 SCT018 SCT040 TX23/2015Z TN13/2005Z 
     TEMPO 1915/1921 4000 RA BKN014 
     PROB40 
     TEMPO 1915/1918 21017G30KT 
     PROB40 
     TEMPO 1918/1924 28010KT 3000 BR BKN010 
     TEMPO 2008/2015 21017G30KT
       
LECV 191800Z VRB01KT 9999 FEW030 12/07 Q1015
TAF LECV 191700Z 1918/2003 VRB03KT 9999 FEW030
       
LEEC 191800Z 27003KT CAVOK 22/13 Q1016
TAF LEEC 191700Z 1918/2003 26006KT 9999 FEW035
       
LEGA 191700Z 34009KT 9999 FEW060 16/07 Q1016
TAF LEGA 191400Z 1915/1924 33006KT 9999 SCT020 SCT040
       
LEGE 191800Z 05007KT 010V080 9999 -RA SCT030TCU SCT080 16/16 Q1010
TAF LEGE 191700Z 1918/2018 36008KT 9999 BKN020 TX25/2012Z TN15/2006Z 
     PROB30 
     TEMPO 1918/2006 4000 SHRA BKN015 SCT020TCU 
     PROB30 
     TEMPO 1918/2006 VRB03KT 2000 BR BKN010 
     TEMPO 2010/2018 VRB03KT
       
LEGR 191800Z VRB02KT 9999 FEW045 16/10 Q1017
TAF LEGR 191400Z 1915/2015 28006KT 9999 FEW020 SCT040 TX24/2015Z TN10/2006Z 
     PROB30 
     TEMPO 2003/2009 4000 BR
       
LEGT 191700Z 24010KT 9999 FEW045 16/08 Q1014
TAF LEGT 191700Z 1918/2003 25006KT 9999 FEW045
       
LEHC 191800Z AUTO 27008KT CAVOK 14/11 Q1012
TAF LEHC 190800Z 1909/2009 VRB03KT 9999 SCT012 TX17/1913Z TN10/2006Z 
     PROB30 
     TEMPO 1909/1910 0800 FG VV002 
     BECMG 1909/1910 27006KT
       
LEIB 191800Z VRB02KT 9999 FEW030 18/12 Q1010 NOSIG
TAF LEIB 191400Z 1915/2015 29008KT 9999 SCT020 TX24/2012Z TN17/2006Z 
     TEMPO 1915/1924 4000 SHRA BKN018 SCT020TCU 
     PROB40 
     TEMPO 1915/1918 2000 TSRA BKN014 SCT020CB 
     BECMG 1920/1923 30015KT
       
LEJR 191800Z 26007KT 220V300 9999 FEW055 21/16 Q1017
TAF LEJR 191700Z 1918/2018 27006KT 9999 FEW020 TX25/2015Z TN14/2006Z 
     TEMPO 2003/2010 4000 BR 
     PROB40 
     TEMPO 2004/2009 0300 FG VV002
       
LELC 191800Z 22005KT 190V260 9999 FEW038 20/12 Q1012 NOSIG
TAF LELC 191700Z 1918/2018 28008KT 9999 FEW040 TX26/2014Z TN15/2005Z 
     PROB40 
     TEMPO 2004/2010 30015G25KT 
     PROB40 
     TEMPO 2014/2018 17010KT
       
LELL 191800Z AUTO 04009KT 320V100 9999 -SHRA BKN020/// OVC025/// ///TCU 17/16 Q1009
TAF LELL 191400Z 1915/2015 VRB04KT 9999 BKN025 TX25/2013Z TN14/2006Z 
     TEMPO 1915/1924 4000 SHRA BKN018 SCT020TCU 
     PROB40 
     TEMPO 1915/1916 3000 TSRA BKN020 SCT025CB
       
LELN 191800Z VRB02KT 9999 SCT020 BKN030 11/09 Q1015
TAF LELN 191700Z 1918/2003 VRB05KT 9999 BKN020 
     PROB30 
     TEMPO 1918/1923 RA BKN012 
     BECMG 1921/1923 BKN008 
     PROB40 
     TEMPO 2001/2003 0400 FG OVC003
       
LELO 191800Z 00000KT CAVOK 13/10 Q1013
TAF LELO 191700Z 1918/2003 29004KT 9999 FEW040
       
LEMD 191800Z 26006KT 220V280 CAVOK 17/06 Q1014 NOSIG
TAF LEMD 191700Z 1918/2024 VRB05KT CAVOK TX22/2016Z TN08/2007Z 
     PROB40 
     TEMPO 2002/2010 3500 BR BKN008 
     PROB30 
     TEMPO 2003/2009 1500 BCFG BKN006
       
LEMG 191800Z 30003KT 260V330 9999 FEW040 19/13 Q1015 NOSIG
TAF LEMG 191700Z 1918/2018 29008KT 9999 FEW030 TX27/2015Z TN16/2003Z 
     PROB40 
     TEMPO 2004/2012 30015G25KT
       
LEMH 191800Z 22003KT 9999 -RA FEW020 FEW045TCU 16/13 Q1011
TAF LEMH 191400Z 1915/2015 20012KT 9999 SCT014 TX24/2012Z TN16/2006Z 
     TEMPO 1915/2005 4000 SHRA BKN018 SCT020TCU 
     TEMPO 1915/1922 18015G25KT 2000 TSRA BKN014 SCT016CB 
     BECMG 1920/1922 VRB04KT
       
LEMO 191800Z 24005KT CAVOK 20/16 Q1016 NOSIG
TAF LEMO 191700Z 1918/2003 23006KT 9999 FEW030
       
LEPA 191800Z 01003KT 320V070 9999 FEW022 16/13 Q1010 NOSIG
TAF LEPA 191700Z 1918/2018 VRB04KT 9999 SCT020 TX25/2012Z TN12/2006Z 
     PROB40 
     TEMPO 1918/2005 4000 SHRA BKN018 FEW020TCU 
     PROB30 
     TEMPO 1918/1920 2000 TSRA BKN020 SCT025CB
       
LEPP 191800Z 00000KT CAVOK 14/09 Q1013
TAF LEPP 191400Z 1915/2015 VRB04KT 9999 SCT040 TX23/2014Z TN09/2005Z
       
LERI 191700Z 32007KT 290V350 9999 FEW060 21/07 Q1011 NOSIG
TAF LERI 191400Z 1915/1924 31008KT 9999 SCT040 
     PROB40 
     TEMPO 1915/1918 32010G20KT
       
LERS 191800Z 22004KT 180V240 9999 -RA FEW030 BKN040 15/14 Q1008
TAF LERS 191400Z 1915/2015 33006KT 9999 SCT025 TX24/2013Z TN15/2006Z 
     PROB40 
     TEMPO 1915/1918 4000 SHRA BKN018 SCT025TCU 
     PROB30 
     TEMPO 1915/1916 2000 TSRA BKN018 SCT025CB
       
LERT 191700Z 28010KT 240V320 9999 FEW020 21/16 Q1016 NOSIG
TAF LERT 191700Z 1918/2003 29008KT 9999 FEW020
       
LESA 191800Z 28009KT 250V310 9999 FEW025 BKN035 14/08 Q1016
TAF LESA 191700Z 1918/2018 24006KT 9999 BKN035 TX18/2014Z TN09/2006Z 
     PROB40 
     TEMPO 1918/1924 BKN012 
     TEMPO 2000/2009 3000 BR BKN010 
     PROB40 
     TEMPO 2004/2008 0400 FG OVC003
       
LESO 191800Z VRB02KT CAVOK 17/14 Q1012
TAF LESO 191700Z 1918/2018 15007KT 9999 FEW050 TX24/2014Z TN16/2006Z 
     PROB40 
     TEMPO 2012/2018 04010KT
       
LEST 191800Z 24006KT 190V280 3000 BR FEW002 BKN004 OVC010 14/14 Q1013 TEMPO 1500 BCFG
TAF LEST 191700Z 1918/2018 22009KT 6000 SCT005 BKN016 TX20/2014Z TN10/2006Z 
     TEMPO 1918/2018 3000 BR BKN005 BKN010 
     TEMPO 1918/2018 0800 -RADZ BCFG BKN002 
     PROB40 
     TEMPO 1918/2008 0350 FG VV001 
     PROB40 
     TEMPO 2011/2018 21015G25KT
       
LESU 191630Z 07004KT 030V090 9999 SCT050 BKN070 14/10 Q1011
TAF LESU 191400Z 1915/2015 VRB03KT 9999 SCT050 TX22/2013Z TN04/2006Z 
     PROB40 
     TEMPO 1915/1918 3000 SHRA BKN020 SCT040CB
       
LETL 191800Z AUTO 33010KT CAVOK 11/05 Q1014
LETO 191800Z 01001KT CAVOK 15/10 Q1014 NOSIG
TAF LETO 191700Z 1918/2018 VRB05KT CAVOK TX22/2016Z TN08/2007Z 
     PROB40 
     TEMPO 2002/2010 3500 BR BKN008 
     PROB30 
     TEMPO 2003/2009 1500 BCFG BKN006
       
LEVC 191800Z 32003KT 300V010 9999 SCT030 17/14 Q1011 NOSIG
TAF LEVC 191700Z 1918/2018 29005KT 9999 SCT030 TX26/2012Z TN13/2006Z
       
LEVD 191800Z 26012KT 9999 SCT034 BKN041 12/07 Q1015
TAF LEVD 191700Z 1918/2018 25006KT 9999 BKN035 TX19/2014Z TN08/2006Z 
     TEMPO 2000/2009 3000 BR BKN010 
     PROB40 
     TEMPO 2004/2008 0400 FG OVC003
       
LEVS 191800Z 23006KT CAVOK 15/09 Q1015
TAF LEVS 191700Z 1918/2003 25006KT 9999 FEW045 
     PROB40 
     TEMPO 2002/2003 3500 BR BKN008
       
LEVT 191800Z VRB01KT 9999 FEW070 12/08 Q1013
TAF LEVT 191700Z 1918/2018 22009KT 9999 FEW050 TX22/2014Z TN10/2006Z 
     TEMPO 2009/2014 23015G25KT
       
LEVX 191800Z 18008KT 120V250 0200 R19/1000U R01/0325N FG VV001 14/14 Q1013 RERA NOSIG
TAF LEVX 191700Z 1918/2018 18009KT 3000 BR SCT002 BKN010 TX20/2013Z TN12/2006Z 
     TEMPO 1918/2018 0800 RADZ BKN002 BKN005 
     PROB40 
     TEMPO 1918/2009 0350 FG VV001 
     TEMPO 2014/2018 20015G25KT
       
LEXJ 191800Z VRB02KT 9999 BKN069 18/14 Q1010
TAF LEXJ 191400Z 1915/2015 VRB04KT 9999 FEW040 TX23/2014Z TN14/2006Z 
     TEMPO 1915/1918 04010KT 
     PROB30 
     TEMPO 1921/1924 28010KT RADZ
       
LEZG 191800Z 25006KT 9999 FEW040 16/10 Q1012
TAF LEZG 191700Z 1918/2018 27008KT 9999 SCT060 TX23/2012Z TN10/2006Z 
     TEMPO 2011/2018 VRB04KT
       
LEZL 191800Z 29008KT 9999 FEW048 22/14 Q1016 NOSIG
TAF LEZL 191400Z 1915/2015 25006KT 9999 FEW030 TX25/2015Z TN14/2006Z 
     TEMPO 2002/2010 4000 BR 
     PROB40 
     TEMPO 2003/2009 0200 FG VV002
       
LEMO 191800Z 24005KT CAVOK 20/16 Q1016 NOSIG
TAF LEMO 191700Z 1918/2003 23006KT 9999 FEW030
       
LEPP 191800Z 00000KT CAVOK 14/09 Q1013
TAF LEPP 191400Z 1915/2015 VRB04KT 9999 SCT040 TX23/2014Z TN09/2005Z
       
LERS 191800Z 22004KT 180V240 9999 -RA FEW030 BKN040 15/14 Q1008
TAF LERS 191400Z 1915/2015 33006KT 9999 SCT025 TX24/2013Z TN15/2006Z 
     PROB40 
     TEMPO 1915/1918 4000 SHRA BKN018 SCT025TCU 
     PROB30 
     TEMPO 1915/1916 2000 TSRA BKN018 SCT025CB
       
LERT 191700Z 28010KT 240V320 9999 FEW020 21/16 Q1016 NOSIG
TAF LERT 191700Z 1918/2003 29008KT 9999 FEW020
       
LESA 191800Z 28009KT 250V310 9999 FEW025 BKN035 14/08 Q1016
TAF LESA 191700Z 1918/2018 24006KT 9999 BKN035 TX18/2014Z TN09/2006Z 
     PROB40 
     TEMPO 1918/1924 BKN012 
     TEMPO 2000/2009 3000 BR BKN010 
     PROB40 
     TEMPO 2004/2008 0400 FG OVC003
       
LESO 191800Z VRB02KT CAVOK 17/14 Q1012
TAF LESO 191700Z 1918/2018 15007KT 9999 FEW050 TX24/2014Z TN16/2006Z 
     PROB40 
     TEMPO 2012/2018 04010KT
       
LEXJ 191800Z VRB02KT 9999 BKN069 18/14 Q1010
TAF LEXJ 191400Z 1915/2015 VRB04KT 9999 FEW040 TX23/2014Z TN14/2006Z 
     TEMPO 1915/1918 04010KT 
     PROB30 
     TEMPO 1921/1924 28010KT RADZ
       
LEST 191800Z 24006KT 190V280 3000 BR FEW002 BKN004 OVC010 14/14 Q1013 TEMPO 1500 BCFG
TAF LEST 191700Z 1918/2018 22009KT 6000 SCT005 BKN016 TX20/2014Z TN10/2006Z 
     TEMPO 1918/2018 3000 BR BKN005 BKN010 
     TEMPO 1918/2018 0800 -RADZ BCFG BKN002 
     PROB40 
     TEMPO 1918/2008 0350 FG VV001 
     PROB40 
     TEMPO 2011/2018 21015G25KT
       
LESU 191630Z 07004KT 030V090 9999 SCT050 BKN070 14/10 Q1011
TAF LESU 191400Z 1915/2015 VRB03KT 9999 SCT050 TX22/2013Z TN04/2006Z 
     PROB40 
     TEMPO 1915/1918 3000 SHRA BKN020 SCT040CB
       
LEZL 191800Z 29008KT 9999 FEW048 22/14 Q1016 NOSIG
TAF LEZL 191400Z 1915/2015 25006KT 9999 FEW030 TX25/2015Z TN14/2006Z 
     TEMPO 2002/2010 4000 BR 
     PROB40 
     TEMPO 2003/2009 0200 FG VV002
       
LEBZ 191800Z 27010KT 9999 BKN037 20/14 Q1017
TAF LEBZ 191700Z 1918/2018 27006KT 9999 SCT010 SCT020 TX24/2015Z TN14/2006Z 
     TEMPO 2002/2011 4000 BR BKN008 
     PROB30 
     TEMPO 2003/2010 0300 FG VV002
       
GCXO 191800Z 30011KT 9999 VCFG FEW001 SCT008 BKN013 19/17 Q1023 NOSIG
TAF GCXO 191400Z 1915/2015 30009KT 9999 BKN012 TX21/2014Z TN16/2006Z 
     TEMPO 1915/1918 SCT015 
     PROB30 
     TEMPO 1920/2009 3000 DZ BCFG BKN006
       
GCTS 191800Z 12006KT 9999 FEW025 BKN037 24/19 Q1021 NOSIG
TAF GCTS 191400Z 1915/2015 21009KT 9999 BKN035 TX27/2013Z TN20/2006Z 
     BECMG 1915/1918 09010KT
       
LETO 191800Z 01001KT CAVOK 15/10 Q1014 NOSIG
TAF LETO 191700Z 1918/2018 VRB05KT CAVOK TX22/2016Z TN08/2007Z 
     PROB40 
     TEMPO 2002/2010 3500 BR BKN008 
     PROB30 
     TEMPO 2003/2009 1500 BCFG BKN006
       
LEVC 191800Z 32003KT 300V010 9999 SCT030 17/14 Q1011 NOSIG
TAF LEVC 191700Z 1918/2018 29005KT 9999 SCT030 TX26/2012Z TN13/2006Z
       
LEVD 191800Z 26012KT 9999 SCT034 BKN041 12/07 Q1015
TAF LEVD 191700Z 1918/2018 25006KT 9999 BKN035 TX19/2014Z TN08/2006Z 
     TEMPO 2000/2009 3000 BR BKN010 
     PROB40 
     TEMPO 2004/2008 0400 FG OVC003
       
LEVX 191800Z 18008KT 120V250 0200 R19/1000U R01/0325N FG VV001 14/14 Q1013 RERA NOSIG
TAF LEVX 191700Z 1918/2018 18009KT 3000 BR SCT002 BKN010 TX20/2013Z TN12/2006Z 
     TEMPO 1918/2018 0800 RADZ BKN002 BKN005 
     PROB40 
     TEMPO 1918/2009 0350 FG VV001 
     TEMPO 2014/2018 20015G25KT
       
LEVT 191800Z VRB01KT 9999 FEW070 12/08 Q1013
TAF LEVT 191700Z 1918/2018 22009KT 9999 FEW050 TX22/2014Z TN10/2006Z 
     TEMPO 2009/2014 23015G25KT
       
LEZG 191800Z 25006KT 9999 FEW040 16/10 Q1012
TAF LEZG 191700Z 1918/2018 27008KT 9999 SCT060 TX23/2012Z TN10/2006Z 
     TEMPO 2011/2018 VRB04KT